EN

Hourly Weather Abu `Ushar

Today, 27 November, Friday

Time Temperature Precipitation Wind Pressure Humidity
00:00 +23°C° 0 mm 4 mps 724 mmHg 20%
01:00 +22°C° 0 mm 4 mps 723 mmHg 21%
02:00 +22°C° 0 mm 4 mps 723 mmHg 22%
03:00 +21°C° 0 mm 4 mps 723 mmHg 23%
04:00 +21°C° 0 mm 4 mps 723 mmHg 23%
05:00 +20°C° 0 mm 4 mps 723 mmHg 23%
06:00 +22°C° 0 mm 5 mps 724 mmHg 22%
07:00 +23°C° 0 mm 5 mps 725 mmHg 21%
08:00 +26°C° 0 mm 6 mps 725 mmHg 21%
09:00 +29°C° 0 mm 6 mps 725 mmHg 18%
10:00 +32°C° 0 mm 5 mps 725 mmHg 16%
11:00 +35°C° 0 mm 5 mps 725 mmHg 13%
12:00 +36°C° 0 mm 5 mps 724 mmHg 13%
13:00 +37°C° 0 mm 5 mps 723 mmHg 12%
14:00 +37°C° 0 mm 5 mps 723 mmHg 11%
15:00 +36°C° 0 mm 4 mps 723 mmHg 12%
16:00 +34°C° 0 mm 4 mps 723 mmHg 13%
17:00 +33°C° 0 mm 4 mps 723 mmHg 14%
18:00 +30°C° 0 mm 4 mps 723 mmHg 15%
19:00 +28°C° 0 mm 4 mps 723 mmHg 16%
20:00 +26°C° 0 mm 5 mps 724 mmHg 17%
21:00 +25°C° 0 mm 5 mps 724 mmHg 18%
22:00 +23°C° 0 mm 5 mps 724 mmHg 19%
23:00 +23°C° 0 mm 5 mps 724 mmHg 21%

Tomorrow, 28 November, Saturday

Time Temperature Precipitation Wind Pressure Humidity
00:00 +22°C° 0 mm 5 mps 724 mmHg 23%
01:00 +21°C° 0 mm 5 mps 724 mmHg 26%
02:00 +21°C° 0 mm 6 mps 723 mmHg 28%
03:00 +20°C° 0 mm 5 mps 724 mmHg 29%
04:00 +20°C° 0 mm 5 mps 724 mmHg 30%
05:00 +19°C° 0 mm 5 mps 724 mmHg 32%
06:00 +20°C° 0 mm 6 mps 725 mmHg 29%
07:00 +22°C° 0 mm 6 mps 726 mmHg 27%
08:00 +23°C° 0 mm 7 mps 726 mmHg 24%
09:00 +27°C° 0 mm 7 mps 726 mmHg 21%
10:00 +30°C° 0 mm 6 mps 726 mmHg 18%
11:00 +33°C° 0 mm 6 mps 726 mmHg 15%
12:00 +34°C° 0 mm 6 mps 725 mmHg 14%
13:00 +35°C° 0 mm 6 mps 724 mmHg 12%
14:00 +36°C° 0 mm 6 mps 724 mmHg 11%
15:00 +35°C° 0 mm 5 mps 723 mmHg 11%
16:00 +33°C° 0 mm 5 mps 723 mmHg 12%
17:00 +30°C° 0 mm 4 mps 723 mmHg 13%
18:00 +28°C° 0 mm 5 mps 724 mmHg 14%
19:00 +26°C° 0 mm 5 mps 724 mmHg 14%
20:00 +23°C° 0 mm 5 mps 724 mmHg 15%
21:00 +22°C° 0 mm 5 mps 724 mmHg 16%
22:00 +21°C° 0 mm 5 mps 724 mmHg 17%
23:00 +20°C° 0 mm 5 mps 724 mmHg 18%

Day after tomorrow, 29 November, Sunday

Time Temperature Precipitation Wind Pressure Humidity
00:00 +20°C° 0 mm 5 mps 724 mmHg 20%
01:00 +19°C° 0 mm 5 mps 724 mmHg 21%
02:00 +17°C° 0 mm 5 mps 724 mmHg 23%
03:00 +17°C° 0 mm 5 mps 724 mmHg 24%
04:00 +16°C° 0 mm 5 mps 724 mmHg 25%
05:00 +16°C° 0 mm 5 mps 724 mmHg 26%
06:00 +19°C° 0 mm 5 mps 725 mmHg 25%
07:00 +20°C° 0 mm 5 mps 725 mmHg 24%
08:00 +22°C° 0 mm 6 mps 726 mmHg 24%
09:00 +26°C° 0 mm 5 mps 725 mmHg 24%
10:00 +28°C° 0 mm 5 mps 725 mmHg 25%
11:00 +32°C° 0 mm 5 mps 725 mmHg 25%
12:00 +33°C° 0 mm 4 mps 724 mmHg 22%
13:00 +35°C° 0 mm 4 mps 723 mmHg 19%
14:00 +36°C° 0 mm 4 mps 723 mmHg 16%
15:00 +35°C° 0 mm 4 mps 723 mmHg 18%
16:00 +33°C° 0 mm 4 mps 722 mmHg 20%
17:00 +32°C° 0 mm 4 mps 722 mmHg 22%
18:00 +29°C° 0 mm 4 mps 723 mmHg 25%
19:00 +27°C° 0 mm 4 mps 723 mmHg 27%
20:00 +26°C° 0 mm 5 mps 723 mmHg 30%
21:00 +25°C° 0 mm 5 mps 723 mmHg 32%
22:00 +23°C° 0 mm 5 mps 723 mmHg 33%
23:00 +23°C° 0 mm 5 mps 723 mmHg 35%

30 November, Monday

Time Temperature Precipitation Wind Pressure Humidity
00:00 +22°C° 0 mm 5 mps 723 mmHg 34%
01:00 +21°C° 0 mm 5 mps 723 mmHg 34%
02:00 +20°C° 0 mm 4 mps 723 mmHg 34%
03:00 +20°C° 0 mm 4 mps 723 mmHg 32%
04:00 +19°C° 0 mm 4 mps 723 mmHg 30%
05:00 +18°C° 0 mm 4 mps 724 mmHg 29%
06:00 +20°C° 0 mm 5 mps 724 mmHg 30%
07:00 +22°C° 0 mm 5 mps 725 mmHg 31%
08:00 +23°C° 0 mm 6 mps 725 mmHg 32%
09:00 +27°C° 0 mm 5 mps 725 mmHg 29%
10:00 +30°C° 0 mm 5 mps 725 mmHg 26%
11:00 +33°C° 0 mm 5 mps 725 mmHg 24%
12:00 +34°C° 0 mm 5 mps 724 mmHg 21%
13:00 +35°C° 0 mm 5 mps 724 mmHg 17%
14:00 +37°C° 0 mm 5 mps 723 mmHg 14%
15:00 +35°C° 0 mm 4 mps 723 mmHg 15%
16:00 +33°C° 0 mm 4 mps 723 mmHg 15%
17:00 +32°C° 0 mm 4 mps 723 mmHg 15%
18:00 +29°C° 0 mm 4 mps 723 mmHg 17%
19:00 +27°C° 0 mm 4 mps 723 mmHg 18%
20:00 +25°C° 0 mm 4 mps 724 mmHg 20%
21:00 +23°C° 0 mm 4 mps 724 mmHg 20%
22:00 +23°C° 0 mm 4 mps 724 mmHg 20%
23:00 +22°C° 0 mm 4 mps 724 mmHg 21%

1 December, Tuesday

Time Temperature Precipitation Wind Pressure Humidity
00:00 +21°C° 0 mm 4 mps 724 mmHg 22%
01:00 +20°C° 0 mm 4 mps 723 mmHg 24%
02:00 +20°C° 0 mm 4 mps 723 mmHg 26%
03:00 +19°C° 0 mm 4 mps 723 mmHg 27%
04:00 +19°C° 0 mm 4 mps 724 mmHg 28%
05:00 +18°C° 0 mm 4 mps 724 mmHg 29%
06:00 +20°C° 0 mm 4 mps 724 mmHg 26%
07:00 +22°C° 0 mm 5 mps 725 mmHg 23%
08:00 +24°C° 0 mm 6 mps 725 mmHg 21%
09:00 +27°C° 0 mm 5 mps 725 mmHg 18%
10:00 +29°C° 0 mm 5 mps 725 mmHg 14%
11:00 +33°C° 0 mm 5 mps 725 mmHg 11%
12:00 +34°C° 0 mm 5 mps 724 mmHg 10%
13:00 +35°C° 0 mm 5 mps 723 mmHg 10%
14:00 +36°C° 0 mm 5 mps 723 mmHg 9%
15:00 +35°C° 0 mm 4 mps 723 mmHg 10%
16:00 +33°C° 0 mm 4 mps 723 mmHg 11%
17:00 +30°C° 0 mm 4 mps 723 mmHg 12%
18:00 +28°C° 0 mm 4 mps 723 mmHg 14%
19:00 +27°C° 0 mm 4 mps 723 mmHg 15%
20:00 +25°C° 0 mm 4 mps 724 mmHg 16%
21:00 +23°C° 0 mm 4 mps 724 mmHg 16%
22:00 +22°C° 0 mm 4 mps 724 mmHg 17%
23:00 +22°C° 0 mm 4 mps 724 mmHg 17%

2 December, Wednesday

Time Temperature Precipitation Wind Pressure Humidity
00:00 +21°C° 0 mm 4 mps 724 mmHg 17%
01:00 +20°C° 0 mm 4 mps 724 mmHg 18%
02:00 +19°C° 0 mm 4 mps 723 mmHg 18%
03:00 +19°C° 0 mm 4 mps 723 mmHg 19%
04:00 +18°C° 0 mm 4 mps 724 mmHg 19%
05:00 +18°C° 0 mm 4 mps 724 mmHg 19%
06:00 +20°C° 0 mm 4 mps 724 mmHg 18%
07:00 +22°C° 0 mm 5 mps 725 mmHg 16%
08:00 +25°C° 0 mm 5 mps 725 mmHg 15%
09:00 +27°C° 0 mm 5 mps 725 mmHg 13%
10:00 +30°C° 0 mm 6 mps 725 mmHg 11%
11:00 +33°C° 0 mm 6 mps 725 mmHg 10%
12:00 +34°C° 0 mm 5 mps 724 mmHg 9%
13:00 +35°C° 0 mm 5 mps 724 mmHg 9%
14:00 +35°C° 0 mm 5 mps 723 mmHg 8%
15:00 +34°C° 0 mm 4 mps 723 mmHg 9%
16:00 +32°C° 0 mm 4 mps 723 mmHg 10%
17:00 +29°C° 0 mm 4 mps 722 mmHg 11%
18:00 +27°C° 0 mm 4 mps 723 mmHg 12%
19:00 +26°C° 0 mm 4 mps 723 mmHg 12%
20:00 +23°C° 0 mm 4 mps 724 mmHg 13%
21:00 +22°C° 0 mm 4 mps 724 mmHg 14%
22:00 +21°C° 0 mm 4 mps 724 mmHg 15%
23:00 +20°C° 0 mm 4 mps 724 mmHg 16%
Show more

We Need Your Consent

Meteoprog and our Service Providers may store and access personal data such as cookies, device identifiers or other similar technologies on your device and process such data to personalise content and ads, as well as provide social media features and to analyse the traffic.

  • Store and/or access information on your device

    Cookies, device identifiers or other information can be stored or accessed on your device for the purposes indicated above.

  • Personalised ads and content, ad and content measurement, audience insights, and products development

    Ads and content can be personalised based on a profile. More data can be added to better personalise ads and content. Ad and content performance can be measured. Insights about the audience who saw the ads and content can be derived. Such data can be used to develop or improve user’s experience, systems and software.

By clicking ‘I Agree’ you will allow the use of indicated cookies, device identifiers, web beacons or other similar technologies. Your settings can be changed in the browser on your device.

For certain purposes, legitimate interests may be relied on, rather than consent. You can read more about this in our Privacy and Cookie Policy.